| time (UTC) | temp F | wind direction | speed knots | gust knots | rain 1hr in | rain 24hr in | rain mn in | humidity % | barometer mb |
| 20260507093549 | 58 | 1 | 1.7 | 3.5 | 0.00 | 0.00 | 0.00 | 51 | 1017.5 |
| 20260507092547 | 57 | 33 | 1.7 | 7.0 | 0.00 | 0.00 | 0.00 | 53 | 1017.3 |
| 20260507091544 | 57 | 34 | 1.7 | 6.1 | 0.00 | 0.00 | 0.00 | 52 | 1017.4 |
| 20260507090542 | 56 | 32 | 2.6 | 7.0 | 0.00 | 0.00 | 0.00 | 55 | 1017.4 |
| 20260507085539 | 57 | 158 | 2.6 | 7.8 | 0.00 | 0.00 | 0.00 | 54 | 1017.2 |
| 20260507084537 | 56 | 199 | 2.6 | 6.1 | 0.00 | 0.00 | 0.00 | 56 | 1017.2 |
| 20260507083534 | 56 | 92 | 0.9 | 7.8 | 0.00 | 0.00 | 0.00 | 59 | 1017.2 |
| 20260507082531 | 56 | 11 | 1.7 | 6.1 | 0.00 | 0.00 | 0.00 | 58 | 1017.2 |
| 20260507081529 | 56 | 73 | 1.7 | 7.8 | 0.00 | 0.00 | 0.00 | 58 | 1017.2 |
| 20260507080526 | 55 | 5 | 1.7 | 5.2 | 0.00 | 0.00 | 0.00 | 60 | 1017.0 |
| 20260507075524 | 54 | 174 | 1.7 | 6.1 | 0.00 | 0.00 | 0.00 | 61 | 1016.9 |
| 20260507074521 | 54 | 245 | 1.7 | 6.1 | 0.00 | 0.00 | 0.00 | 61 | 1016.9 |
| 20260507073519 | 54 | 0 | 1.7 | 7.0 | 0.00 | 0.00 | 0.00 | 63 | 1016.9 |
| 20260507072516 | 54 | 106 | 1.7 | 7.0 | 0.00 | 0.00 | 0.00 | 64 | 1016.8 |
| 20260507071614 | 53 | 42 | 0.9 | 6.1 | 0.00 | 0.00 | 0.00 | 66 | 1016.8 |
| 20260507070611 | 52 | 12 | 0.9 | 3.5 | 0.00 | 0.00 | 0.00 | 68 | 1016.7 |
| 20260507065609 | 51 | 14 | 1.7 | 5.2 | 0.00 | 0.00 | 0.00 | 69 | 1016.7 |
| 20260507064606 | 51 | 79 | 0.9 | 3.5 | 0.00 | 0.00 | 0.00 | 69 | 1016.6 |
| 20260507063604 | 51 | 17 | 0.9 | 3.5 | 0.00 | 0.00 | 0.00 | 70 | 1016.5 |
| 20260507062601 | 51 | 51 | 1.7 | 5.2 | 0.00 | 0.00 | 0.00 | 70 | 1016.5 |
| 20260507061558 | 50 | 344 | 2.6 | 5.2 | 0.00 | 0.00 | 0.00 | 71 | 1016.3 |
| 20260507060556 | 51 | 19 | 0.9 | 7.8 | 0.00 | 0.00 | 0.00 | 70 | 1016.3 |
| 20260507055553 | 50 | 17 | 0.9 | 5.2 | 0.00 | 0.00 | 0.00 | 71 | 1016.3 |
| 20260507054551 | 50 | 126 | 0.9 | 3.5 | 0.00 | 0.00 | 0.00 | 71 | 1016.0 |
| 20260507053548 | 50 | 174 | 1.7 | 6.1 | 0.00 | 0.00 | 0.00 | 72 | 1016.1 |
| 20260507052545 | 50 | 90 | 0.0 | 1.7 | 0.00 | 0.00 | 0.00 | 71 | 1016.0 |
| 20260507051543 | 51 | 147 | 0.0 | 3.5 | 0.00 | 0.00 | 0.00 | 71 | 1015.9 |
| 20260507050540 | 50 | 45 | 0.0 | 1.7 | 0.00 | 0.00 | 0.00 | 72 | 1015.8 |
| 20260507045538 | 49 | 45 | 0.0 | 1.7 | 0.00 | 0.00 | 0.00 | 73 | 1015.6 |
| 20260507044535 | 48 | 24 | 0.9 | 3.5 | 0.00 | 0.00 | 0.00 | 74 | 1015.6 |
| 20260507043533 | 46 | 0.0 | 1.7 | 0.00 | 0.00 | 0.00 | 78 | 1015.5 | |
| 20260507042530 | 45 | 180 | 0.0 | 1.7 | 0.00 | 0.00 | 0.00 | 81 | 1015.4 |
| 20260507041528 | 44 | 0 | 0.0 | 1.7 | 0.00 | 0.00 | 0.00 | 82 | 1015.4 |
| 20260507040525 | 45 | 0.0 | 1.7 | 0.00 | 0.00 | 0.00 | 82 | 1015.2 | |
| 20260507035523 | 45 | 0.0 | 0.0 | 0.00 | 0.00 | 0.00 | 82 | 1015.0 | |
| 20260507034520 | 45 | 23 | 0.0 | 1.7 | 0.00 | 0.00 | 0.00 | 82 | 1015.0 |
| 20260507033518 | 46 | 0.0 | 0.0 | 0.00 | 0.00 | 0.00 | 81 | 1014.9 | |
| 20260507032515 | 46 | 0 | 0.0 | 3.5 | 0.00 | 0.00 | 0.00 | 81 | 1014.7 |
| 20260507031613 | 46 | 90 | 0.0 | 1.7 | 0.00 | 0.00 | 0.00 | 80 | 1014.7 |
| 20260507030610 | 46 | 211 | 0.9 | 3.5 | 0.00 | 0.00 | 0.00 | 80 | 1014.7 |
| 20260507025607 | 46 | 135 | 0.0 | 3.5 | 0.00 | 0.00 | 0.00 | 80 | 1014.7 |
| 20260507024605 | 46 | 23 | 0.0 | 1.7 | 0.00 | 0.00 | 0.00 | 80 | 1014.6 |
| 20260507023602 | 46 | 6 | 0.0 | 1.7 | 0.00 | 0.00 | 0.00 | 80 | 1014.4 |
| 20260507022600 | 47 | 0 | 0.0 | 1.7 | 0.00 | 0.00 | 0.00 | 80 | 1014.4 |
| 20260507021557 | 47 | 11 | 0.0 | 1.7 | 0.00 | 0.00 | 0.00 | 79 | 1014.3 |
| 20260507020555 | 47 | 0.0 | 1.7 | 0.00 | 0.00 | 0.00 | 79 | 1014.1 | |
| 20260507015552 | 47 | 52 | 0.9 | 3.5 | 0.00 | 0.00 | 0.00 | 79 | 1014.2 |
| 20260507014549 | 47 | 34 | 0.0 | 3.5 | 0.00 | 0.00 | 0.00 | 80 | 1014.0 |
| 20260507013547 | 47 | 32 | 0.9 | 1.7 | 0.00 | 0.00 | 0.00 | 80 | 1013.9 |
| 20260507012544 | 47 | 23 | 0.0 | 1.7 | 0.00 | 0.00 | 0.00 | 79 | 1013.9 |
| 20260507011542 | 47 | 328 | 0.0 | 3.5 | 0.00 | 0.00 | 0.00 | 79 | 1013.9 |
| 20260507010539 | 47 | 0 | 0.0 | 1.7 | 0.00 | 0.00 | 0.00 | 79 | 1013.8 |
| 20260507005537 | 47 | 0.0 | 1.7 | 0.00 | 0.00 | 0.00 | 79 | 1013.8 | |
| 20260507004534 | 48 | 225 | 0.0 | 1.7 | 0.00 | 0.00 | 0.00 | 79 | 1013.7 |
| 20260507003532 | 48 | 0.0 | 1.7 | 0.00 | 0.00 | 0.00 | 79 | 1013.8 | |
| 20260507002529 | 48 | 315 | 0.0 | 1.7 | 0.00 | 0.00 | 0.00 | 79 | 1013.7 |
| 20260507001527 | 48 | 203 | 0.0 | 1.7 | 0.00 | 0.00 | 0.00 | 79 | 1013.7 |
| 20260507000524 | 48 | 0.0 | 1.7 | 0.00 | 0.00 | 0.00 | 79 | 1013.6 | |
| 20260506235521 | 48 | 23 | 0.0 | 1.7 | 0.00 | 0.00 | 0.00 | 79 | 1013.8 |
| 20260506234519 | 48 | 5 | 0.9 | 3.5 | 0.00 | 0.00 | 0.00 | 79 | 1013.7 |
| 20260506233517 | 48 | 347 | 0.9 | 1.7 | 0.00 | 0.00 | 0.00 | 78 | 1013.6 |
| 20260506232614 | 48 | 20 | 0.9 | 3.5 | 0.00 | 0.00 | 0.00 | 79 | 1013.6 |
| 20260506231611 | 49 | 15 | 0.0 | 3.5 | 0.00 | 0.00 | 0.00 | 79 | 1013.5 |
| 20260506230609 | 49 | 158 | 0.0 | 1.7 | 0.00 | 0.00 | 0.00 | 79 | 1013.5 |
| 20260506225606 | 49 | 23 | 0.0 | 1.7 | 0.00 | 0.00 | 0.00 | 79 | 1013.3 |
| 20260506224604 | 49 | 42 | 0.0 | 1.7 | 0.00 | 0.00 | 0.00 | 78 | 1013.4 |
| 20260506223601 | 49 | 0 | 0.0 | 1.7 | 0.00 | 0.00 | 0.00 | 78 | 1013.4 |
| 20260506222559 | 49 | 0.0 | 1.7 | 0.00 | 0.00 | 0.00 | 78 | 1013.2 | |
| 20260506221556 | 49 | 359 | 0.9 | 3.5 | 0.00 | 0.00 | 0.00 | 78 | 1013.1 |
| 20260506220554 | 49 | 68 | 0.0 | 3.5 | 0.00 | 0.00 | 0.00 | 78 | 1013.2 |
| 20260506215551 | 49 | 0.0 | 1.7 | 0.00 | 0.00 | 0.00 | 78 | 1013.2 | |
| 20260506214548 | 49 | 23 | 0.0 | 1.7 | 0.00 | 0.00 | 0.00 | 78 | 1013.1 |
| 20260506213546 | 49 | 0 | 0.0 | 1.7 | 0.00 | 0.00 | 0.00 | 77 | 1013.0 |
| 20260506212543 | 49 | 15 | 0.0 | 1.7 | 0.00 | 0.00 | 0.00 | 77 | 1012.9 |
| 20260506211541 | 50 | 0.0 | 1.7 | 0.00 | 0.00 | 0.00 | 76 | 1012.9 | |
| 20260506210538 | 50 | 0 | 0.0 | 3.5 | 0.00 | 0.00 | 0.00 | 75 | 1012.8 |
| 20260506205536 | 50 | 0.0 | 0.0 | 0.00 | 0.00 | 0.00 | 74 | 1012.8 | |
| 20260506204533 | 50 | 0.0 | 1.7 | 0.00 | 0.00 | 0.00 | 74 | 1012.8 | |
| 20260506203531 | 50 | 23 | 0.0 | 1.7 | 0.00 | 0.00 | 0.00 | 74 | 1012.8 |
| 20260506202528 | 50 | 23 | 0.0 | 1.7 | 0.00 | 0.00 | 0.00 | 74 | 1012.7 |
| 20260506201526 | 50 | 0 | 0.0 | 1.7 | 0.00 | 0.00 | 0.00 | 73 | 1012.6 |
| 20260506200523 | 50 | 20 | 0.0 | 1.7 | 0.00 | 0.00 | 0.00 | 71 | 1012.6 |
| 20260506195515 | 51 | 12 | 0.0 | 1.7 | 0.00 | 0.00 | 0.00 | 71 | 1012.6 |
| 20260506194613 | 51 | 16 | 0.9 | 3.5 | 0.00 | 0.00 | 0.00 | 69 | 1012.4 |
| 20260506193604 | 51 | 39 | 0.9 | 3.5 | 0.00 | 0.00 | 0.00 | 67 | 1012.4 |
| 20260506192602 | 52 | 181 | 0.9 | 3.5 | 0.00 | 0.00 | 0.00 | 65 | 1012.2 |
| 20260506191559 | 52 | 34 | 0.0 | 1.7 | 0.00 | 0.00 | 0.00 | 65 | 1012.1 |
| 20260506190551 | 52 | 11 | 0.0 | 3.5 | 0.00 | 0.00 | 0.00 | 64 | 1012.0 |
| 20260506185549 | 52 | 23 | 0.0 | 1.7 | 0.00 | 0.00 | 0.00 | 61 | 1011.9 |
| 20260506184540 | 53 | 0.0 | 1.7 | 0.00 | 0.00 | 0.00 | 58 | 1011.7 | |
| 20260506183538 | 53 | 39 | 0.9 | 1.7 | 0.00 | 0.00 | 0.00 | 57 | 1011.7 |
| 20260506182535 | 53 | 0 | 0.9 | 3.5 | 0.00 | 0.00 | 0.00 | 56 | 1011.5 |
| 20260506181527 | 53 | 12 | 0.9 | 3.5 | 0.00 | 0.00 | 0.00 | 56 | 1011.3 |
| 20260506180525 | 54 | 23 | 0.9 | 1.7 | 0.00 | 0.00 | 0.00 | 58 | 1011.4 |
| 20260506175516 | 54 | 23 | 0.0 | 1.7 | 0.00 | 0.00 | 0.00 | 59 | 1011.3 |
| 20260506174614 | 54 | 23 | 0.9 | 1.7 | 0.00 | 0.00 | 0.00 | 61 | 1011.2 |
| 20260506173611 | 54 | 40 | 0.0 | 3.5 | 0.00 | 0.00 | 0.00 | 64 | 1011.2 |
| 20260506172603 | 54 | 0 | 0.0 | 1.7 | 0.00 | 0.00 | 0.00 | 63 | 1011.2 |
| 20260506171600 | 54 | 0 | 0.0 | 1.7 | 0.00 | 0.00 | 0.00 | 65 | 1011.0 |
| 20260506170552 | 55 | 0 | 0.0 | 3.5 | 0.00 | 0.00 | 0.00 | 65 | 1010.9 |
| 20260506165550 | 54 | 0.0 | 1.7 | 0.00 | 0.00 | 0.00 | 66 | 1010.8 | |
| 20260506164547 | 55 | 150 | 0.9 | 3.5 | 0.00 | 0.00 | 0.00 | 65 | 1010.8 |
| 20260506163539 | 55 | 124 | 0.9 | 3.5 | 0.00 | 0.00 | 0.00 | 64 | 1010.8 |
| 20260506162536 | 56 | 27 | 0.9 | 5.2 | 0.00 | 0.00 | 0.00 | 62 | 1010.8 |
| 20260506161529 | 56 | 8 | 0.9 | 3.5 | 0.00 | 0.00 | 0.00 | 61 | 1010.7 |
| 20260506160526 | 56 | 44 | 0.9 | 3.5 | 0.00 | 0.00 | 0.00 | 60 | 1010.8 |
| 20260506155523 | 56 | 250 | 0.9 | 3.5 | 0.00 | 0.00 | 0.00 | 60 | 1010.7 |
| 20260506154515 | 56 | 123 | 2.6 | 6.1 | 0.00 | 0.00 | 0.00 | 59 | 1010.9 |
| 20260506153613 | 56 | 174 | 1.7 | 3.5 | 0.00 | 0.00 | 0.00 | 58 | 1011.0 |
| 20260506152605 | 57 | 208 | 0.9 | 3.5 | 0.00 | 0.00 | 0.00 | 58 | 1010.9 |
| 20260506151602 | 57 | 13 | 0.9 | 3.5 | 0.00 | 0.00 | 0.00 | 57 | 1010.9 |
| 20260506150600 | 57 | 0 | 0.0 | 1.7 | 0.00 | 0.00 | 0.00 | 56 | 1010.8 |
| 20260506145551 | 57 | 25 | 0.9 | 3.5 | 0.00 | 0.00 | 0.00 | 55 | 1010.9 |
| 20260506144548 | 57 | 348 | 0.9 | 3.5 | 0.00 | 0.00 | 0.00 | 54 | 1010.9 |
| 20260506143541 | 57 | 0 | 0.0 | 3.5 | 0.00 | 0.00 | 0.00 | 54 | 1010.9 |
| 20260506142538 | 57 | 3 | 0.9 | 3.5 | 0.00 | 0.00 | 0.00 | 53 | 1010.9 |
| 20260506141536 | 57 | 30 | 0.9 | 3.5 | 0.00 | 0.00 | 0.00 | 52 | 1010.9 |
| 20260506140527 | 57 | 87 | 0.9 | 3.5 | 0.00 | 0.00 | 0.00 | 51 | 1010.9 |
| 20260506135525 | 57 | 50 | 0.9 | 3.5 | 0.00 | 0.00 | 0.00 | 51 | 1010.9 |
| 20260506134516 | 57 | 29 | 0.9 | 3.5 | 0.00 | 0.00 | 0.00 | 49 | 1010.9 |
| 20260506133614 | 57 | 37 | 0.9 | 5.2 | 0.00 | 0.00 | 0.00 | 48 | 1010.8 |
| 20260506132611 | 57 | 18 | 0.9 | 3.5 | 0.00 | 0.00 | 0.00 | 48 | 1010.9 |
| 20260506131603 | 57 | 358 | 0.9 | 3.5 | 0.00 | 0.00 | 0.00 | 47 | 1010.7 |
| 20260506130601 | 57 | 134 | 0.9 | 3.5 | 0.00 | 0.00 | 0.00 | 46 | 1010.7 |
| 20260506125552 | 57 | 340 | 0.9 | 5.2 | 0.00 | 0.00 | 0.00 | 45 | 1010.7 |
| 20260506124550 | 58 | 114 | 1.7 | 5.2 | 0.00 | 0.00 | 0.00 | 45 | 1010.6 |
| 20260506123547 | 58 | 10 | 0.9 | 3.5 | 0.00 | 0.00 | 0.00 | 44 | 1010.6 |
| 20260506122539 | 58 | 10 | 1.7 | 6.1 | 0.00 | 0.00 | 0.00 | 44 | 1010.5 |
| 20260506121537 | 59 | 11 | 0.9 | 3.5 | 0.00 | 0.00 | 0.00 | 43 | 1010.4 |
| 20260506120528 | 58 | 23 | 1.7 | 3.5 | 0.00 | 0.00 | 0.00 | 43 | 1010.4 |
| 20260506115526 | 58 | 49 | 0.9 | 3.5 | 0.00 | 0.00 | 0.00 | 43 | 1010.3 |
| 20260506114523 | 58 | 94 | 1.7 | 6.1 | 0.00 | 0.00 | 0.00 | 42 | 1010.3 |
| 20260506113515 | 58 | 40 | 1.7 | 6.1 | 0.00 | 0.00 | 0.00 | 41 | 1010.2 |
| 20260506112613 | 58 | 16 | 0.9 | 3.5 | 0.00 | 0.00 | 0.00 | 41 | 1010.3 |
| 20260506111604 | 57 | 37 | 0.9 | 3.5 | 0.00 | 0.00 | 0.00 | 43 | 1010.4 |
| 20260506110602 | 57 | 12 | 1.7 | 5.2 | 0.00 | 0.00 | 0.00 | 43 | 1010.3 |
| 20260506105559 | 57 | 354 | 1.7 | 5.2 | 0.00 | 0.00 | 0.00 | 44 | 1010.4 |
| 20260506104551 | 57 | 95 | 0.9 | 3.5 | 0.00 | 0.00 | 0.00 | 44 | 1010.4 |
| 20260506103549 | 56 | 18 | 1.7 | 6.1 | 0.00 | 0.00 | 0.00 | 44 | 1010.4 |
| 20260506102540 | 57 | 73 | 0.9 | 3.5 | 0.00 | 0.00 | 0.00 | 45 | 1010.4 |
| 20260506101538 | 56 | 2 | 0.9 | 3.5 | 0.00 | 0.00 | 0.00 | 46 | 1010.4 |
| 20260506100535 | 56 | 122 | 0.9 | 3.5 | 0.00 | 0.00 | 0.00 | 46 | 1010.4 |
| 20260506095527 | 55 | 27 | 0.9 | 3.5 | 0.00 | 0.00 | 0.00 | 46 | 1010.6 |
| 20260506094525 | 55 | 18 | 1.7 | 7.8 | 0.00 | 0.00 | 0.00 | 46 | 1010.5 |